CW6872 Weather Reports


Display with metric or nautical units.
time (UTC)temp
F
wind
direction
speed
MPH
gust
MPH
rain 1hr
in
rain 24hr
in
rain mn
in
humidity
%
barometer
mb
20260506182516 63 229 2.0 11.0 0.00 0.08 0.08 87 1007.2
20260506182021 63 0 0.0 11.0 0.00 0.08 0.08 88 1007.3
20260506181534 63 0 0.0 7.0 0.00 0.08 0.08 88 1007.3
20260506181015 63 0 0.0 4.0 0.00 0.08 0.08 88 1007.4
20260506180516 63 0 0.0 5.0 0.01 0.08 0.08 88 1007.2
20260506180031 63 0 0.0 5.0 0.01 0.08 0.08 88 1007.2
20260506175517 63 0 0.0 6.0 0.01 0.08 0.08 87 1007.4
20260506175015 63 0 0.0 6.0 0.02 0.08 0.08 87 1007.5
20260506174536 63 0 1.0 6.0 0.02 0.08 0.08 87 1007.7
20260506174017 63 0 0.0 8.0 0.02 0.08 0.08 87 1007.7
20260506173517 64 195 1.0 8.0 0.02 0.08 0.08 87 1007.6
20260506173047 64 0 0.0 8.0 0.03 0.08 0.08 88 1007.7
20260506172515 64 175 0.0 5.0 0.03 0.08 0.08 89 1007.5
20260506172017 64 0 0.0 5.0 0.03 0.08 0.08 89 1007.6
20260506171536 63 0 1.0 5.0 0.04 0.08 0.08 89 1007.7
20260506171016 63 0 0.0 5.0 0.04 0.08 0.08 89 1007.6
20260506170521 63 0 0.0 7.0 0.04 0.07 0.07 89 1007.3
20260506170035 63 0 2.0 7.0 0.05 0.07 0.07 89 1007.6
20260506165517 63 0 0.0 2.0 0.05 0.07 0.07 89 1007.7
20260506165017 63 0 0.0 4.0 0.05 0.06 0.06 89 1007.5
20260506164538 63 0 0.0 4.0 0.05 0.06 0.06 89 1007.7
20260506164019 63 0 0.0 6.0 0.05 0.06 0.06 89 1007.9
20260506163519 63 0 0.0 6.0 0.06 0.06 0.06 88 1008.1
20260506163053 63 0 0.0 3.0 0.05 0.05 0.05 88 1008.4
20260506162517 63 0 0.0 3.0 0.05 0.05 0.05 87 1008.6
20260506162017 63 200 0.0 6.0 0.05 0.05 0.05 87 1008.7
20260506161537 63 0 0.0 6.0 0.04 0.04 0.04 86 1008.8
20260506161019 63 153 0.0 5.0 0.04 0.04 0.04 86 1008.9
20260506160519 63 198 0.0 4.0 0.03 0.03 0.03 85 1009.0
20260506160036 64 0 0.0 4.0 0.02 0.02 0.02 84 1008.9
20260506155519 64 0 0.0 4.0 0.02 0.02 0.02 81 1009.3
20260506155018 64 0 0.0 3.0 0.01 0.01 0.01 81 1009.3
20260506154538 65 0 0.0 3.0 0.01 0.01 0.01 81 1009.2
20260506154019 65 0 0.0 3.0 0.01 0.01 0.01 80 1009.0
20260506153519 65 0 0.0 3.0 0.00 0.00 0.00 79 1008.9
20260506153035 66 0 0.0 4.0 0.00 0.00 0.00 78 1009.0
20260506152518 66 0 0.0 7.0 0.00 0.00 0.00 78 1009.0
20260506152017 66 0 0.0 7.0 0.00 0.00 0.00 77 1008.9
20260506151540 66 229 1.0 8.0 0.00 0.00 0.00 75 1009.1
20260506151019 67 0 0.0 8.0 0.00 0.00 0.00 74 1008.9
20260506150519 67 0 1.0 8.0 0.00 0.00 0.00 71 1008.8
20260506150035 67 0 0.0 9.0 0.00 0.00 0.00 71 1008.7
20260506145520 67 304 1.0 11.0 0.00 0.00 0.00 70 1008.9
20260506145017 68 209 1.0 11.0 0.00 0.00 0.00 69 1009.0
20260506144534 68 228 1.0 13.0 0.00 0.00 0.00 67 1008.9
20260506144017 68 164 2.0 13.0 0.00 0.00 0.00 67 1009.0
20260506143519 69 180 2.0 17.0 0.00 0.00 0.00 66 1009.0
20260506143033 69 0 1.0 17.0 0.00 0.00 0.00 67 1009.0
20260506142522 69 218 0.0 16.0 0.00 0.00 0.00 68 1009.2
20260506142021 69 182 4.0 16.0 0.00 0.00 0.00 65 1009.0
20260506141536 69 0 1.0 11.0 0.00 0.00 0.00 68 1008.9
20260506141023 69 196 1.0 8.0 0.00 0.00 0.00 66 1008.7
20260506140517 68 221 1.0 8.0 0.00 0.00 0.00 68 1008.7
20260506140036 68 194 1.0 7.0 0.00 0.00 0.00 68 1008.8
20260506135518 68 0 2.0 7.0 0.00 0.00 0.00 68 1008.9
20260506135025 68 0 1.0 11.0 0.00 0.00 0.00 68 1008.9
20260506134536 68 225 0.0 11.0 0.00 0.00 0.00 69 1009.0
20260506134019 68 270 1.0 11.0 0.00 0.00 0.00 68 1008.7
20260506133517 68 252 2.0 9.0 0.00 0.00 0.00 68 1008.9
20260506133034 68 0 0.0 6.0 0.00 0.00 0.00 68 1009.0
20260506132522 68 0 0.0 8.0 0.00 0.00 0.00 69 1009.0
20260506132019 68 0 1.0 8.0 0.00 0.00 0.00 68 1009.2
20260506131537 68 244 2.0 13.0 0.00 0.00 0.00 68 1009.2
20260506131018 67 221 1.0 13.0 0.00 0.00 0.00 69 1009.2
20260506130520 67 231 3.0 13.0 0.00 0.00 0.00 69 1009.1
20260506130039 67 0 2.0 9.0 0.00 0.00 0.00 69 1009.0
20260506125516 67 0 2.0 10.0 0.00 0.00 0.00 69 1009.1
20260506125017 67 225 1.0 10.0 0.00 0.00 0.00 70 1009.0
20260506124535 67 182 3.0 13.0 0.00 0.00 0.00 69 1008.8
20260506124019 67 0 2.0 13.0 0.00 0.00 0.00 69 1008.7
20260506123520 67 0 1.0 6.0 0.00 0.00 0.00 69 1008.9
20260506123036 67 0 0.0 5.0 0.00 0.00 0.00 71 1008.8
20260506122517 66 180 0.0 4.0 0.00 0.00 0.00 71 1008.9
20260506122016 66 0 0.0 10.0 0.00 0.00 0.00 72 1008.8
20260506121533 65 225 0.0 10.0 0.00 0.00 0.00 72 1009.0
20260506121017 65 231 3.0 10.0 0.00 0.00 0.00 72 1008.9
20260506120519 65 0 1.0 8.0 0.00 0.00 0.00 72 1009.0
20260506120042 65 0 0.0 8.0 0.00 0.00 0.00 73 1009.0
20260506115519 65 247 1.0 8.0 0.00 0.00 0.00 72 1009.0
20260506115017 65 217 2.0 10.0 0.00 0.00 0.00 72 1009.1
20260506114535 65 198 0.0 10.0 0.00 0.00 0.00 72 1009.1
20260506114018 65 0 2.0 10.0 0.00 0.00 0.00 72 1009.3
20260506113520 65 192 1.0 10.0 0.00 0.00 0.00 72 1009.4
20260506113035 66 223 3.0 10.0 0.00 0.00 0.00 71 1009.3
20260506112521 66 0 3.0 10.0 0.00 0.00 0.00 71 1009.4
20260506112023 66 0 1.0 15.0 0.00 0.00 0.00 72 1009.0
20260506111535 66 203 1.0 15.0 0.00 0.00 0.00 73 1009.1
20260506111019 65 185 2.0 15.0 0.00 0.00 0.00 73 1009.0
20260506110518 65 240 2.0 13.0 0.00 0.00 0.00 73 1009.1
20260506110034 65 225 3.0 11.0 0.00 0.00 0.00 74 1008.9
20260506105517 65 186 0.0 7.0 0.00 0.00 0.00 74 1008.9
20260506105019 65 190 0.0 11.0 0.00 0.00 0.00 74 1008.8
20260506104536 64 206 3.0 11.0 0.00 0.00 0.00 74 1008.9
20260506104022 64 250 2.0 8.0 0.00 0.00 0.00 75 1008.7
20260506103518 64 180 1.0 11.0 0.00 0.00 0.00 75 1008.6
20260506103035 64 165 1.0 11.0 0.00 0.00 0.00 75 1008.6
20260506102517 64 171 2.0 12.0 0.00 0.00 0.00 75 1008.8
20260506102019 64 0 3.0 12.0 0.00 0.00 0.00 75 1008.8
20260506101535 64 206 0.0 12.0 0.00 0.00 0.00 75 1008.8
20260506101016 64 225 2.0 12.0 0.00 0.00 0.00 75 1008.7
20260506100518 64 0 1.0 7.0 0.00 0.00 0.00 75 1008.8
20260506100037 64 0 1.0 7.0 0.00 0.00 0.00 74 1008.5
20260506095516 64 0 1.0 8.0 0.00 0.00 0.00 74 1008.5
20260506095019 65 182 1.0 8.0 0.00 0.00 0.00 74 1008.6
20260506094536 64 166 1.0 8.0 0.00 0.00 0.00 74 1008.6
20260506094018 65 187 1.0 8.0 0.00 0.00 0.00 74 1008.5
20260506093525 64 0 1.0 10.0 0.00 0.00 0.00 74 1008.4
20260506093036 64 207 2.0 11.0 0.00 0.00 0.00 74 1008.5
20260506092518 64 0 2.0 11.0 0.00 0.00 0.00 75 1008.6
20260506092017 64 220 0.0 9.0 0.00 0.00 0.00 75 1008.6
20260506091535 64 325 1.0 9.0 0.00 0.00 0.00 75 1008.6
20260506091020 64 0 0.0 9.0 0.00 0.00 0.00 75 1008.7
20260506090518 64 0 0.0 10.0 0.00 0.00 0.00 74 1008.7
20260506090035 64 173 2.0 10.0 0.00 0.00 0.00 74 1008.9
20260506085516 64 346 1.0 6.0 0.00 0.00 0.00 75 1008.8
20260506085018 64 0 2.0 6.0 0.00 0.00 0.00 75 1008.8
20260506084542 64 0 0.0 5.0 0.00 0.00 0.00 75 1008.8
20260506084017 64 0 0.0 6.0 0.00 0.00 0.00 75 1009.0
20260506083519 64 0 0.0 8.0 0.00 0.00 0.00 75 1009.0
20260506083034 65 188 1.0 8.0 0.00 0.00 0.00 74 1008.8
20260506082520 65 0 0.0 8.0 0.00 0.00 0.00 74 1008.8
20260506082017 65 145 0.0 8.0 0.00 0.00 0.00 74 1008.8
20260506081541 65 192 0.0 13.0 0.00 0.00 0.00 74 1008.8
20260506081019 65 0 2.0 13.0 0.00 0.00 0.00 74 1008.9
20260506080519 65 191 1.0 8.0 0.00 0.00 0.00 74 1008.9
20260506073519 65 193 0.0 7.0 0.00 0.00 0.00 72 1008.9
20260506073035 66 0 0.0 7.0 0.00 0.00 0.00 72 1008.9
20260506072518 66 204 0.0 6.0 0.00 0.00 0.00 72 1009.0
20260506072021 66 0 0.0 5.0 0.00 0.00 0.00 72 1009.0
20260506071538 66 0 0.0 7.0 0.00 0.00 0.00 71 1009.0
20260506071019 66 204 0.0 7.0 0.00 0.00 0.00 71 1009.0
20260506070519 66 0 0.0 5.0 0.00 0.00 0.00 71 1009.0
20260506062017 66 0 0.0 4.0 0.00 0.00 0.00 69 1009.3
20260506061535 66 0 0.0 7.0 0.00 0.00 0.00 68 1009.4
20260506061019 66 0 0.0 7.0 0.00 0.00 0.00 68 1009.3
20260506060517 66 198 0.0 6.0 0.00 0.00 0.00 68 1009.3
20260506051018 67 0 0.0 6.0 0.00 0.00 0.00 64 1009.8
20260506050516 67 192 1.0 7.0 0.00 0.00 0.00 64 1009.8
20260506045017 67 188 0.0 5.0 0.00 0.00 0.00 63 1009.9
20260506044532 68 0 1.0 13.0 0.00 0.00 0.00 63 1009.9
20260506044018 68 192 2.0 13.0 0.00 0.00 0.00 62 1009.9
20260506043520 68 204 1.0 5.0 0.00 0.00 0.00 62 1009.8
20260506043032 68 0 0.0 8.0 0.00 0.00 0.00 62 1009.9
20260506042518 68 0 2.0 10.0 0.00 0.00 0.00 61 1009.8
20260506042016 68 237 1.0 10.0 0.00 0.00 0.00 61 1009.8
20260506041551 68 190 1.0 8.0 0.00 0.00 0.00 61 1009.8
20260506041018 68 194 1.0 9.0 0.00 0.00 0.00 60 1009.9
20260506040518 68 214 1.0 9.0 0.00 0.00 0.00 60 1010.0
20260506040034 69 0 1.0 6.0 0.00 0.00 0.00 60 1009.8
20260506035521 69 191 1.0 6.0 0.00 0.00 0.00 60 1009.9
20260506035018 69 201 1.0 6.0 0.00 0.00 0.00 59 1009.9
20260506034548 69 0 0.0 10.0 0.00 0.00 0.00 59 1009.8
20260506034023 69 0 1.0 10.0 0.00 0.00 0.00 59 1009.8
20260506033520 69 148 2.0 9.0 0.00 0.00 0.00 59 1009.7
20260506033033 69 0 2.0 9.0 0.00 0.00 0.00 59 1009.8
20260506032518 69 207 2.0 9.0 0.00 0.00 0.00 59 1009.7
20260506032016 69 0 0.0 6.0 0.00 0.00 0.00 58 1009.7
20260506031535 69 207 0.0 7.0 0.00 0.00 0.00 58 1009.7
20260506031015 69 0 1.0 10.0 0.00 0.00 0.00 58 1009.7
20260506030517 69 226 0.0 10.0 0.00 0.00 0.00 57 1009.7
20260506030037 69 180 3.0 10.0 0.00 0.00 0.00 57 1009.7
20260506025519 69 196 1.0 8.0 0.00 0.00 0.00 57 1009.8
20260506025015 69 0 1.0 10.0 0.00 0.00 0.00 57 1009.7
20260506024538 70 0 2.0 10.0 0.00 0.00 0.00 57 1009.7
20260506024018 70 211 2.0 10.0 0.00 0.00 0.00 57 1009.7
20260506023521 70 0 3.0 9.0 0.00 0.00 0.00 57 1009.6
20260506023033 70 192 1.0 8.0 0.00 0.00 0.00 56 1009.6
20260506022518 70 0 1.0 8.0 0.00 0.00 0.00 56 1009.7
20260506022016 70 207 1.0 10.0 0.00 0.00 0.00 56 1009.6
20260506021533 71 0 1.0 10.0 0.00 0.00 0.00 55 1009.6
20260506021018 71 0 2.0 8.0 0.00 0.00 0.00 55 1009.6
20260506020521 71 242 1.0 9.0 0.00 0.00 0.00 54 1009.7
20260506020035 71 184 3.0 9.0 0.00 0.00 0.00 54 1009.6
20260506015518 71 0 1.0 7.0 0.00 0.00 0.00 54 1009.4
20260506015016 71 198 1.0 16.0 0.00 0.00 0.00 53 1009.6
20260506014536 72 192 3.0 16.0 0.00 0.00 0.00 52 1009.5
20260506014016 72 217 2.0 13.0 0.00 0.00 0.00 51 1009.4
20260506013515 72 179 3.0 15.0 0.00 0.00 0.00 50 1009.2
20260506013049 73 0 1.0 15.0 0.00 0.00 0.00 49 1009.4
20260506012518 73 189 2.0 9.0 0.00 0.00 0.00 47 1009.3
20260506012016 74 182 2.0 10.0 0.00 0.00 0.00 45 1009.3
20260506011531 74 182 3.0 10.0 0.00 0.00 0.00 44 1009.2
20260506011018 74 173 3.0 9.0 0.00 0.00 0.00 44 1009.1
20260506010518 74 0 1.0 12.0 0.00 0.00 0.00 43 1009.0
20260506010035 74 166 2.0 12.0 0.00 0.00 0.00 43 1009.0
20260506005517 75 178 1.0 9.0 0.00 0.00 0.00 42 1008.9
20260506005015 75 225 2.0 9.0 0.00 0.00 0.00 42 1008.8
20260506004534 75 169 1.0 9.0 0.00 0.00 0.00 42 1008.7
20260506004017 75 195 2.0 9.0 0.00 0.00 0.00 42 1008.5
20260506003517 75 0 1.0 7.0 0.00 0.00 0.00 42 1008.7
20260506003036 75 184 2.0 7.0 0.00 0.00 0.00 42 1008.5
20260506002518 75 0 1.0 5.0 0.00 0.00 0.00 42 1008.4
20260506002016 75 0 1.0 6.0 0.00 0.00 0.00 42 1008.5
20260506001536 75 0 1.0 6.0 0.00 0.00 0.00 42 1008.4
20260506001016 76 202 1.0 12.0 0.00 0.00 0.00 41 1008.5
20260506000515 76 0 1.0 12.0 0.00 0.00 0.00 41 1008.3
20260506000036 76 180 3.0 10.0 0.00 0.00 0.00 41 1008.3
20260505235517 76 0 2.0 12.0 0.00 0.00 0.00 40 1008.2
20260505235021 77 180 2.0 13.0 0.00 0.00 0.00 40 1008.1
20260505234534 77 175 2.0 13.0 0.00 0.00 0.00 39 1008.1
20260505234016 77 234 1.0 11.0 0.00 0.00 0.00 38 1008.0
20260505233517 77 242 1.0 9.0 0.00 0.00 0.00 37 1008.2
20260505233036 77 179 1.0 9.0 0.00 0.00 0.00 36 1008.1
20260505232516 78 201 1.0 10.0 0.00 0.00 0.00 36 1008.1
20260505232015 78 0 0.0 10.0 0.00 0.00 0.00 35 1008.2
20260505231536 78 0 2.0 10.0 0.00 0.00 0.00 35 1008.1
20260505231016 78 213 0.0 8.0 0.00 0.00 0.00 35 1008.1
20260505230516 79 209 0.0 10.0 0.00 0.00 0.00 35 1008.0
20260505230052 79 0 1.0 10.0 0.00 0.00 0.00 34 1007.9
20260505225517 79 292 1.0 9.0 0.00 0.00 0.00 34 1007.9
20260505225016 79 0 1.0 9.0 0.00 0.00 0.00 33 1007.7
20260505224535 79 0 2.0 12.0 0.00 0.00 0.00 32 1007.9
20260505224016 79 194 2.0 15.0 0.00 0.00 0.00 31 1007.8
20260505223519 79 212 1.0 16.0 0.00 0.00 0.00 31 1007.6
20260505223039 79 254 3.0 16.0 0.00 0.00 0.00 32 1007.7
20260505222520 79 0 1.0 10.0 0.00 0.00 0.00 31 1007.8
20260505222017 80 190 1.0 12.0 0.00 0.00 0.00 31 1007.8
20260505221543 80 290 1.0 12.0 0.00 0.00 0.00 30 1007.7
20260505221020 80 0 3.0 14.0 0.00 0.00 0.00 30 1007.7
20260505220516 80 254 4.0 14.0 0.00 0.00 0.00 29 1007.8
20260505220049 80 240 3.0 13.0 0.00 0.00 0.00 30 1007.6
20260505215516 81 0 1.0 18.0 0.00 0.00 0.00 30 1007.8
20260505215017 81 249 4.0 18.0 0.00 0.00 0.00 29 1007.5
20260505214536 81 196 2.0 10.0 0.00 0.00 0.00 29 1007.5
20260505214015 81 194 1.0 13.0 0.00 0.00 0.00 28 1007.5
20260505213518 81 197 2.0 18.0 0.00 0.00 0.00 29 1007.4
20260505213034 81 215 3.0 18.0 0.00 0.00 0.00 27 1007.3
20260505212517 82 170 3.0 16.0 0.00 0.00 0.00 27 1007.2
20260505212016 83 315 2.0 14.0 0.00 0.00 0.00 26 1007.3
20260505211536 83 224 1.0 14.0 0.00 0.00 0.00 28 1007.4
20260505211021 83 224 3.0 14.0 0.00 0.00 0.00 28 1007.3
20260505210518 83 0 3.0 18.0 0.00 0.00 0.00 27 1007.2
20260505210037 83 248 4.0 27.0 0.00 0.00 0.00 27 1007.2
20260505205516 83 258 7.0 27.0 0.00 0.00 0.00 26 1007.3
20260505205015 83 240 1.0 14.0 0.00 0.00 0.00 30 1007.2
20260505204536 83 90 3.0 16.0 0.00 0.00 0.00 29 1007.2
20260505204017 83 225 3.0 16.0 0.00 0.00 0.00 29 1007.3
20260505203518 83 140 4.0 14.0 0.00 0.00 0.00 28 1007.3
20260505203033 84 224 3.0 14.0 0.00 0.00 0.00 30 1007.3
20260505202518 83 148 3.0 21.0 0.00 0.00 0.00 30 1007.2
20260505202016 83 222 3.0 21.0 0.00 0.00 0.00 30 1007.1
20260505201535 83 262 4.0 19.0 0.00 0.00 0.00 31 1007.3
20260505201018 83 271 5.0 19.0 0.00 0.00 0.00 30 1007.4
20260505200516 84 139 2.0 17.0 0.00 0.00 0.00 32 1007.5
20260505200041 83 191 3.0 16.0 0.00 0.00 0.00 31 1007.3
20260505195516 83 178 2.0 18.0 0.00 0.00 0.00 31 1007.4
20260505195019 83 160 3.0 18.0 0.00 0.00 0.00 31 1007.5
20260505194539 83 200 2.0 18.0 0.00 0.00 0.00 31 1007.4
20260505194018 82 192 5.0 19.0 0.00 0.00 0.00 32 1007.4
20260505193519 82 175 5.0 23.0 0.00 0.00 0.00 33 1007.4
20260505193041 83 195 2.0 23.0 0.00 0.00 0.00 34 1007.6
20260505192520 83 134 6.0 23.0 0.00 0.00 0.00 31 1007.6
20260505192017 83 209 3.0 20.0 0.00 0.00 0.00 32 1007.6
20260505191537 83 138 4.0 20.0 0.00 0.00 0.00 31 1007.6
20260505191019 83 225 3.0 13.0 0.00 0.00 0.00 34 1007.8
20260505190518 83 233 3.0 17.0 0.00 0.00 0.00 33 1008.1
20260505185520 84 213 5.0 11.0 0.00 0.00 0.00 33 1007.8
20260505185020 84 190 2.0 19.0 0.00 0.00 0.00 34 1008.1
20260505184536 83 167 0.0 19.0 0.00 0.00 0.00 35 1008.0
20260505184021 83 232 5.0 19.0 0.00 0.00 0.00 33 1008.2
20260505183518 83 143 1.0 17.0 0.00 0.00 0.00 35 1008.3
20260505183038 83 202 2.0 16.0 0.00 0.00 0.00 35 1008.4